Location: Unspecified
(48.2082°N, 0.0000°E)
Time: 19:10:41
(UTC+00:00)

Tiros 1 despin weight - Pass Details

Date: 20 June 2019
Orbit: 594 x 642 km, 48.2° (Epoch: 18 July)

Event Time Altitude Azimuth Distance (km) Brightness Sun altitude
Rises 00:51:21 0° 239° (WSW) 2,836 - -17.5°
Reaches altitude 10° 00:53:40 10° 234° (SW) 1,931 - -17.4°
Exits shadow 00:56:20 33° 217° (SW) 998 ? -17.3°
Maximum altitude 00:57:59 54° 158° (SSE) 725 ? -17.2°
Drops below altitude 10° 01:02:17 10° 81° (E) 1,928 ? -17.1°
Sets 01:04:36 0° 77° (ENE) 2,832 ? -17.0°
